sat.trackr.live / text

‹ back to catalog

EUCROPIS

NORAD 43807 · 2018-099BB

PAYLOAD ACTIVE UNKNOWN

§ Identity

Operator
Country
GER
Launch date
2018-12-03
Launch site
AFWTR
Launch vehicle
Mass (kg)
RCS (m²)

External: N2YO · Heavens-Above · Gunter

§ Orbital elements

Epoch: 2026-09-09T22:13:05.188800Z

Period
94.63 min
Inclination
97.4146°
Eccentricity
0.0005348
Mean motion
15.21652792 rev/d
Perigee alt
497.2 km
Apogee alt
504.5 km
Semi-major
6,879.0 km
B*
2.6794e-4
RAAN
307.4396°
Arg perigee
19.7627°
Mean anomaly
340.3815°
Rev number
42,534

§ Raw data

EUCROPIS1 43807U 18099BB  26252.92575450  .00005989  00000+0  26794-3 0  99942 43807  97.4146 307.4396 0005348  19.7627 340.3815 15.21652792425341

JSON: /api/v1/satellites/43807 · /tle

For live sub-satellite position, see the globe view (requires WebGL).

§ Visibility from observer

Set your observer location to see the next 7 days of passes ≥ 10°. The values pass through the URL so the page stays shareable.

No JS? Fill the form by hand. The geolocation button needs JavaScript.

§ Radio — SatNOGS DB

ModeDescriptionDownlinkUplink
FM S-band telemetry 2.263 GHz

1 transmitter · refreshed weekly from db.satnogs.org